Temp
-6 -6 -6 -6 -6 -6 -5 -5 -5 -5 -5 -5 -5 -5 -4 -4 -4 -5 -5 -5 -5 -5 -5 -5 -5 -5 -5 -5 -4 -4 -4 -4 -4 -5 -5 -4 -4 -4 -4 -5 -5 -5 -5 -5 -5 -5 -5 -5 -6 -6 -6 -6 -6 -6 -6 -6 -6 -6 -6 -6 -6 -6 -6
-6 -6 -6 -6 -6 -6 -5 -5 -5 -5 -5 -5 -5 -5 -4 -4 -5 -5 -5 -5 -5 -5 -5 -5 -5 -5 -5 -4 -4 -4 -4 -4 -4 -4 -4 -4 -4 -4 -4 -4 -5 -5 -5 -5 -5 -5 -5 -5 -5 -5 -5 -5 -6 -6 -6 -6 -6 -6 -6 -6 -6 -6 -6
-6 -6 -6 -6 -6 -6 -5 -5 -5 -5 -5 -5 -5 -5 -5 -5 -5 -5 -5 -5 -5 -5 -5 -5 -5 -4 -4 -4 -4 -3 -3 -4 -4 -4 -4 -4 -4 -4 -4 -4 -4 -4 -5 -5 -5 -5 -5 -5 -5 -5 -5 -5 -5 -6 -6 -6 -6 -6 -6 -6 -6 -6 -6
-6 -6 -6 -6 -6 -6 -6 -6 -5 -5 -5 -5 -5 -5 -5 -5 -5 -5 -5 -5 -4 -4 -4 -4 -4 -4 -4 -4 -3 -3 -3 -3 -4 -4 -4 -4 -4 -4 -4 -4 -4 -4 -4 -5 -5 -5 -5 -5 -5 -5 -5 -5 -5 -5 -6 -6 -6 -6 -6 -6 -6 -6 -6
-6 -6 -6 -6 -6 -6 -6 -6 -6 -5 -5 -5 -5 -5 -5 -5 -5 -5 -4 -4 -4 -4 -4 -4 -4 -4 -4 -4 -4 -3 -3 -3 -4 -4 -4 -4 -4 -4 -4 -4 -4 -4 -5 -5 -5 -5 -5 -5 -5 -5 -5 -5 -5 -5 -5 -6 -6 -6 -6 -6 -6 -6 -6
-6 -6 -6 -6 -6 -6 -6 -6 -6 -6 -6 -5 -5 -5 -5 -5 -5 -5 -4 -4 -4 -4 -4 -4 -4 -4 -4 -4 -4 -4 -4 -4 -4 -4 -4 -4 -4 -4 -5 -5 -5 -5 -5 -5 -5 -5 -5 -5 -5 -5 -5 -5 -5 -5 -5 -6 -6 -6 -6 -6 -6 -6 -6
-6 -6 -6 -6 -6 -6 -6 -6 -6 -6 -6 -6 -6 -5 -5 -5 -5 -5 -5 -4 -4 -4 -4 -4 -4 -4 -4 -4 -4 -4 -4 -4 -4 -4 -4 -4 -4 -5 -5 -5 -5 -5 -5 -5 -5 -5 -5 -5 -5 -5 -5 -5 -5 -5 -5 -6 -6 -6 -6 -6 -6 -6 -7
-6 -6 -6 -6 -6 -6 -6 -6 -6 -6 -6 -6 -6 -6 -6 -6 -5 -5 -5 -5 -4 -4 -4 -4 -4 -4 -4 -4 -4 -4 -4 -4 -4 -4 -4 -4 -5 -5 -5 -5 -5 -5 -5 -5 -5 -5 -5 -5 -5 -5 -5 -6 -5 -5 -5 -6 -6 -6 -6 -6 -6 -7 -7
-6 -6 -6 -6 -6 -6 -6 -6 -6 -6 -6 -6 -6 -6 -6 -6 -6 -5 -5 -5 -5 -5 -5 -5 -4 -4 -4 -4 -4 -4 -4 -4 -4 -4 -4 -4 -5 -5 -5 -5 -5 -5 -5 -5 -5 -5 -5 -5 -5 -5 -6 -6 -6 -6 -6 -6 -6 -6 -6 -6 -6 -7 -7
-6 -6 -6 -6 -6 -6 -5 -6 -6 -6 -6 -6 -6 -6 -6 -6 -6 -6 -6 -6 -6 -5 -5 -5 -5 -5 -5 -5 -4 -4 -4 -4 -4 -5 -5 -5 -5 -5 -5 -5 -5 -5 -5 -5 -5 -5 -5 -5 -6 -6 -6 -6 -6 -6 -6 -6 -6 -6 -6 -6 -7 -7 -7
-6 -5 -6 -6 -6 -6 -5 -6 -6 -6 -6 -6 -6 -6 -6 -6 -6 -6 -6 -6 -6 -6 -5 -5 -5 -5 -5 -5 -5 -5 -5 -5 -5 -5 -5 -5 -5 -5 -5 -5 -5 -5 -5 -5 -5 -5 -5 -5 -6 -6 -6 -6 -6 -6 -6 -6 -6 -6 -6 -6 -7 -7 -7
-5 -5 -5 -6 -6 -6 -6 -6 -6 -6 -6 -6 -6 -5 -5 -6 -6 -6 -6 -6 -5 -5 -5 -5 -5 -5 -5 -5 -5 -5 -5 -5 -5 -5 -5 -5 -5 -5 -5 -5 -5 -5 -5 -5 -5 -5 -5 -6 -6 -6 -6 -6 -6 -6 -6 -6 -6 -6 -6 -7 -7 -7 -7
-5 -5 -6 -6 -6 -6 -6 -6 -6 -6 -6 -6 -6 -5 -5 -5 -5 -6 -6 -5 -5 -5 -5 -5 -5 -5 -5 -5 -5 -5 -5 -5 -5 -5 -5 -5 -5 -5 -5 -5 -5 -5 -6 -6 -5 -5 -6 -6 -6 -6 -6 -6 -6 -6 -6 -6 -6 -6 -6 -7 -7 -7 -8
-5 -6 -6 -6 -6 -6 -6 -6 -7 -7 -7 -6 -6 -6 -5 -5 -5 -5 -5 -5 -5 -5 -5 -5 -5 -5 -5 -5 -4 -4 -5 -5 -5 -5 -5 -5 -5 -5 -5 -5 -6 -6 -6 -6 -6 -6 -6 -6 -6 -6 -6 -6 -6 -6 -6 -6 -6 -6 -6 -7 -7 -7 -7
-6 -6 -6 -6 -6 -6 -6 -6 -6 -7 -7 -6 -6 -6 -6 -6 -5 -5 -5 -5 -5 -5 -5 -5 -5 -5 -5 -5 -4 -4 -5 -5 -5 -5 -5 -5 -5 -5 -6 -6 -6 -6 -6 -6 -6 -6 -6 -6 -6 -6 -6 -6 -6 -6 -6 -6 -7 -7 -7 -7 -7 -7 -7
-5 -6 -6 -6 -6 -6 -6 -6 -6 -6 -6 -6 -6 -6 -6 -6 -6 -5 -5 -5 -5 -5 -5 -5 -5 -5 -5 -5 -5 -5 -5 -5 -5 -5 -5 -6 -6 -6 -6 -6 -6 -6 -6 -6 -6 -6 -6 -6 -6 -6 -6 -7 -7 -7 -7 -7 -7 -7 -7 -7 -7 -6 -6
-5 -6 -6 -6 -6 -6 -6 -6 -6 -6 -6 -6 -6 -6 -6 -6 -6 -5 -5 -5 -5 -5 -5 -5 -5 -5 -5 -5 -5 -5 -5 -5 -5 -5 -5 -6 -6 -6 -6 -6 -6 -6 -6 -6 -6 -6 -6 -6 -6 -6 -6 -7 -7 -7 -7 -7 -7 -7 -7 -7 -7 -7 -6
-5 -5 -5 -5 -5 -5 -5 -6 -6 -6 -6 -6 -6 -6 -6 -6 -6 -6 -6 -6 -5 -5 -5 -5 -5 -5 -5 -5 -5 -5 -5 -5 -5 -5 -6 -6 -6 -6 -6 -6 -6 -6 -6 -6 -6 -6 -6 -6 -6 -6 -6 -6 -7 -7 -7 -7 -7 -8 -8 -7 -7 -7 -7
-5 -5 -5 -5 -5 -5 -5 -5 -5 -5 -5 -5 -5 -5 -6 -6 -6 -6 -6 -6 -5 -5 -5 -5 -5 -5 -5 -5 -5 -5 -5 -5 -6 -6 -6 -6 -6 -6 -6 -6 -6 -6 -6 -6 -6 -6 -6 -6 -6 -6 -6 -6 -7 -7 -7 -7 -7 -7 -8 -8 -8 -7 -7
-5 -5 -5 -5 -5 -5 -5 -5 -5 -5 -5 -5 -5 -5 -5 -6 -6 -6 -6 -5 -6 -6 -6 -6 -6 -6 -6 -6 -6 -6 -6 -6 -6 -6 -6 -6 -6 -6 -6 -6 -6 -6 -6 -6 -7 -6 -7 -7 -7 -6 -6 -6 -7 -7 -7 -7 -7 -7 -7 -8 -8 -8 -7
-5 -5 -5 -5 -5 -4 -4 -5 -5 -5 -5 -5 -5 -5 -5 -5 -6 -6 -6 -6 -6 -6 -6 -6 -6 -6 -6 -6 -6 -6 -6 -6 -6 -6 -6 -6 -6 -6 -6 -6 -6 -6 -7 -7 -7 -7 -7 -7 -7 -7 -7 -7 -7 -7 -7 -7 -7 -7 -7 -7 -8 -8 -7
-5 -5 -5 -4 -4 -4 -4 -5 -5 -5 -5 -5 -5 -5 -5 -5 -5 -6 -6 -6 -6 -6 -6 -6 -6 -6 -7 -6 -6 -6 -6 -6 -6 -6 -6 -6 -6 -6 -6 -6 -6 -7 -7 -7 -7 -7 -7 -7 -7 -7 -7 -7 -7 -7 -7 -7 -7 -7 -7 -7 -7 -7 -7
-5 -5 -4 -4 -4 -4 -4 -4 -4 -4 -4 -4 -4 -4 -5 -5 -5 -5 -6 -6 -6 -6 -6 -6 -6 -7 -7 -6 -6 -6 -6 -6 -6 -6 -6 -6 -6 -6 -6 -7 -7 -7 -7 -7 -7 -7 -7 -7 -7 -7 -7 -7 -7 -7 -7 -7 -7 -7 -7 -7 -7 -7 -7
-5 -4 -4 -4 -4 -4 -4 -4 -4 -4 -4 -4 -4 -4 -4 -5 -5 -5 -5 -5 -6 -6 -6 -6 -7 -7 -6 -6 -6 -6 -6 -6 -6 -6 -6 -6 -6 -7 -7 -7 -7 -7 -7 -7 -7 -7 -7 -7 -7 -7 -7 -7 -7 -7 -7 -7 -7 -7 -7 -7 -7 -7 -7
-5 -5 -5 -4 -4 -4 -4 -4 -4 -4 -4 -4 -4 -4 -4 -5 -5 -5 -5 -5 -6 -6 -6 -7 -7 -7 -7 -7 -7 -7 -7 -7 -6 -6 -6 -6 -7 -7 -7 -7 -7 -7 -7 -7 -7 -7 -7 -7 -7 -7 -7 -7 -7 -7 -7 -7 -7 -7 -7 -7 -7 -7 -7
-5 -5 -5 -4 -4 -4 -4 -4 -4 -4 -4 -4 -4 -4 -4 -5 -5 -5 -5 -5 -5 -6 -6 -6 -7 -7 -7 -7 -7 -7 -7 -7 -7 -7 -7 -7 -7 -7 -7 -7 -7 -7 -7 -7 -7 -7 -7 -7 -7 -7 -7 -7 -7 -7 -7 -7 -7 -7 -7 -7 -7 -7 -7
-5 -5 -5 -5 -4 -4 -4 -4 -4 -4 -4 -4 -4 -4 -4 -4 -5 -5 -5 -5 -5 -5 -6 -6 -6 -7 -7 -7 -7 -7 -7 -7 -7 -7 -7 -7 -7 -7 -7 -7 -7 -7 -7 -7 -7 -7 -7 -7 -7 -7 -6 -6 -6 -7 -7 -7 -7 -7 -7 -7 -7 -7 -8
-5 -5 -5 -5 -5 -4 -4 -4 -4 -4 -4 -4 -4 -5 -4 -4 -5 -4 -5 -5 -5 -5 -5 -5 -6 -6 -7 -7 -7 -7 -7 -7 -7 -7 -7 -6 -7 -7 -7 -7 -7 -7 -7 -7 -7 -7 -7 -7 -7 -7 -6 -6 -7 -7 -7 -7 -7 -7 -7 -7 -7 -8 -8
-6 -6 -5 -5 -5 -5 -5 -4 -4 -4 -4 -4 -4 -5 -5 -4 -4 -4 -5 -5 -5 -5 -5 -5 -5 -6 -6 -6 -7 -7 -7 -7 -7 -7 -7 -7 -7 -7 -7 -7 -7 -7 -7 -7 -7 -7 -7 -7 -7 -7 -7 -7 -7 -7 -7 -7 -7 -7 -7 -7 -7 -8 -8
-6 -6 -5 -5 -5 -5 -5 -5 -5 -4 -4 -4 -4 -4 -5 -5 -5 -5 -5 -5 -5 -5 -5 -5 -5 -6 -6 -6 -6 -6 -7 -7 -7 -7 -7 -7 -7 -7 -7 -7 -7 -7 -7 -7 -7 -7 -7 -7 -7 -7 -7 -7 -7 -7 -7 -7 -7 -7 -7 -7 -8 -8 -8
-6 -6 -6 -5 -5 -5 -5 -5 -5 -5 -5 -4 -4 -5 -5 -5 -5 -5 -5 -5 -5 -5 -5 -5 -5 -5 -6 -6 -6 -6 -7 -7 -7 -7 -7 -7 -7 -7 -7 -7 -7 -7 -7 -7 -7 -7 -7 -7 -7 -7 -7 -7 -7 -7 -7 -7 -7 -7 -7 -7 -8 -8 -8
-6 -6 -6 -6 -5 -5 -5 -5 -5 -5 -5 -5 -5 -5 -5 -5 -5 -5 -5 -5 -5 -5 -5 -5 -5 -5 -5 -6 -6 -6 -6 -7 -7 -7 -7 -7 -7 -7 -7 -7 -7 -7 -7 -7 -7 -7 -7 -7 -7 -7 -7 -7 -7 -7 -7 -7 -7 -7 -7 -7 -8 -8 -8
-6 -6 -6 -6 -6 -6 -5 -5 -5 -5 -5 -5 -5 -5 -5 -5 -5 -5 -5 -5 -5 -5 -5 -5 -5 -5 -5 -6 -6 -6 -6 -7 -7 -7 -7 -7 -7 -7 -7 -7 -7 -7 -7 -7 -7 -7 -7 -7 -7 -7 -7 -7 -7 -7 -7 -7 -7 -7 -7 -7 -8 -8 -8
-6 -6 -6 -6 -6 -6 -6 -6 -6 -5 -5 -5 -5 -5 -5 -5 -5 -5 -5 -5 -5 -5 -5 -5 -5 -5 -6 -6 -6 -6 -6 -6 -7 -7 -7 -7 -7 -7 -7 -7 -7 -7 -7 -7 -7 -7 -7 -7 -7 -7 -7 -7 -7 -7 -7 -7 -7 -7 -8 -8 -8 -8 -8
-6 -6 -6 -6 -6 -6 -6 -6 -6 -6 -6 -6 -6 -6 -6 -6 -5 -5 -5 -5 -5 -5 -5 -5 -5 -6 -6 -6 -6 -6 -6 -6 -6 -6 -6 -6 -7 -7 -7 -7 -7 -7 -7 -7 -7 -7 -7 -7 -7 -7 -7 -7 -7 -7 -7 -7 -8 -8 -8 -8 -8 -8 -8
-6 -6 -6 -6 -6 -6 -6 -6 -6 -6 -6 -6 -6 -6 -6 -6 -6 -6 -6 -6 -6 -6 -6 -6 -6 -6 -6 -6 -6 -6 -6 -6 -6 -6 -6 -6 -6 -6 -7 -7 -7 -7 -7 -7 -7 -7 -7 -7 -7 -7 -7 -7 -7 -7 -8 -8 -8 -8 -8 -8 -8 -8 -8
-6 -6 -6 -6 -6 -6 -6 -6 -6 -6 -6 -6 -6 -6 -6 -6 -6 -6 -6 -6 -6 -6 -6 -6 -6 -6 -6 -6 -6 -6 -6 -6 -6 -6 -6 -6 -6 -6 -7 -7 -7 -7 -7 -7 -7 -7 -7 -7 -7 -7 -7 -7 -7 -7 -8 -8 -8 -8 -8 -8 -8 -8 -8
-7 -7 -6 -6 -6 -6 -6 -6 -6 -6 -6 -6 -6 -6 -6 -6 -6 -6 -6 -6 -6 -6 -6 -6 -6 -6 -6 -6 -6 -6 -6 -6 -6 -6 -6 -6 -6 -7 -7 -7 -7 -7 -7 -7 -7 -7 -7 -7 -7 -8 -8 -8 -8 -8 -8 -8 -8 -8 -8 -8 -8 -8 -8
Height
5872 5874 5875 5877 5879 5881 5883 5885 5887 5888 5890 5891 5892 5893 5894 5896 5897 5899 5901 5902 5904 5906 5908 5910 5911 5912 5914 5914 5916 5917 5918 5920 5921 5922 5923 5923 5924 5925 5926 5927 5928 5929 5930 5931 5931 5932 5933 5934 5934 5935 5936 5936 5937 5937 5937 5937 5937 5937 5937 5936 5936 5936 5936
5870 5872 5873 5874 5876 5879 5882 5884 5886 5887 5889 5890 5891 5893 5894 5896 5897 5898 5900 5901 5903 5905 5906 5908 5910 5911 5913 5913 5915 5916 5917 5919 5920 5921 5922 5923 5924 5925 5926 5927 5928 5929 5929 5930 5931 5931 5932 5933 5933 5934 5935 5935 5936 5936 5936 5936 5937 5937 5936 5936 5936 5936 5936
5868 5870 5871 5874 5876 5877 5880 5883 5884 5886 5888 5890 5891 5892 5894 5895 5896 5897 5899 5900 5902 5904 5905 5907 5909 5910 5911 5913 5914 5915 5917 5918 5919 5920 5921 5922 5923 5924 5925 5926 5927 5928 5929 5929 5930 5930 5931 5932 5932 5933 5934 5934 5935 5935 5935 5936 5936 5936 5936 5935 5935 5935 5935
5867 5869 5870 5873 5874 5875 5878 5881 5883 5885 5887 5889 5890 5892 5893 5894 5895 5896 5898 5899 5901 5903 5905 5907 5908 5909 5911 5912 5914 5915 5916 5918 5919 5920 5920 5921 5922 5923 5924 5926 5927 5927 5928 5929 5929 5930 5930 5931 5931 5932 5932 5933 5934 5934 5934 5934 5935 5935 5934 5934 5934 5934 5935
5864 5867 5869 5870 5871 5873 5877 5880 5882 5884 5886 5887 5889 5890 5892 5893 5894 5895 5897 5899 5901 5903 5904 5905 5907 5909 5910 5912 5913 5914 5916 5917 5918 5919 5920 5921 5921 5922 5923 5924 5925 5926 5927 5928 5928 5929 5929 5930 5930 5931 5931 5931 5932 5933 5933 5933 5933 5933 5933 5933 5933 5933 5933
5862 5864 5867 5869 5870 5873 5876 5878 5881 5883 5884 5886 5887 5889 5890 5892 5893 5895 5897 5898 5900 5902 5903 5905 5907 5909 5910 5911 5912 5914 5915 5916 5917 5918 5919 5920 5921 5922 5922 5923 5924 5925 5925 5926 5927 5927 5928 5928 5929 5929 5929 5930 5930 5931 5931 5931 5932 5932 5932 5932 5932 5932 5932
5860 5862 5866 5868 5869 5871 5874 5876 5879 5881 5882 5884 5885 5887 5889 5891 5893 5894 5896 5898 5899 5901 5903 5905 5906 5908 5909 5910 5911 5913 5914 5915 5916 5916 5917 5918 5919 5920 5921 5921 5922 5923 5924 5924 5925 5925 5926 5926 5927 5927 5927 5928 5928 5929 5929 5929 5930 5930 5930 5930 5930 5930 5930
5858 5861 5865 5867 5866 5867 5870 5874 5876 5878 5880 5882 5884 5886 5888 5890 5892 5893 5895 5897 5898 5900 5902 5904 5905 5906 5907 5908 5910 5911 5912 5913 5914 5915 5916 5917 5918 5919 5919 5920 5921 5921 5922 5923 5923 5923 5924 5924 5925 5925 5926 5926 5926 5927 5927 5927 5927 5928 5928 5928 5928 5928 5928
5857 5860 5863 5865 5864 5865 5869 5871 5873 5875 5878 5880 5882 5885 5886 5888 5890 5892 5894 5896 5897 5899 5901 5903 5904 5905 5906 5907 5908 5909 5910 5911 5912 5913 5914 5915 5916 5917 5917 5918 5919 5919 5920 5921 5921 5921 5921 5922 5922 5923 5923 5924 5924 5924 5925 5925 5925 5925 5926 5926 5926 5926 5926
5856 5857 5859 5861 5862 5864 5867 5870 5872 5874 5877 5879 5881 5883 5885 5887 5889 5891 5893 5894 5896 5898 5899 5900 5902 5903 5905 5906 5907 5907 5908 5909 5910 5911 5912 5913 5914 5915 5915 5916 5917 5917 5918 5918 5919 5919 5919 5919 5920 5920 5921 5921 5921 5922 5922 5922 5923 5923 5923 5924 5924 5924 5924
5851 5853 5856 5858 5860 5863 5866 5869 5872 5874 5876 5878 5880 5882 5884 5886 5887 5889 5891 5892 5894 5896 5897 5898 5899 5901 5903 5904 5905 5906 5907 5908 5909 5910 5911 5912 5912 5913 5913 5914 5915 5915 5916 5916 5917 5917 5917 5917 5917 5918 5918 5918 5919 5919 5919 5920 5920 5921 5921 5921 5921 5921 5921
5849 5852 5855 5857 5859 5863 5865 5868 5870 5872 5874 5877 5878 5880 5883 5885 5886 5887 5889 5891 5892 5893 5894 5896 5897 5899 5901 5902 5902 5904 5906 5907 5908 5909 5909 5910 5910 5911 5911 5912 5913 5913 5914 5914 5914 5914 5914 5914 5915 5915 5915 5915 5916 5916 5917 5917 5917 5918 5918 5918 5919 5919 5919
5850 5853 5856 5857 5859 5862 5864 5867 5869 5871 5872 5874 5876 5877 5880 5883 5884 5886 5887 5889 5890 5891 5893 5895 5896 5898 5899 5900 5901 5902 5904 5905 5906 5907 5907 5907 5908 5909 5909 5910 5911 5911 5912 5912 5912 5912 5912 5912 5912 5913 5913 5913 5913 5914 5914 5915 5915 5916 5916 5916 5916 5916 5916
5849 5852 5854 5857 5859 5861 5863 5865 5867 5869 5870 5872 5874 5875 5877 5879 5882 5883 5885 5887 5888 5889 5891 5893 5894 5896 5897 5898 5898 5900 5902 5903 5903 5904 5905 5905 5905 5906 5907 5908 5908 5909 5909 5910 5910 5910 5910 5910 5911 5911 5911 5911 5911 5912 5912 5913 5913 5913 5913 5913 5913 5913 5913
5846 5850 5851 5853 5856 5859 5862 5864 5865 5867 5868 5869 5871 5873 5874 5876 5878 5880 5883 5884 5886 5887 5889 5890 5892 5893 5894 5895 5896 5897 5899 5900 5901 5901 5902 5903 5904 5904 5905 5906 5906 5907 5907 5908 5908 5909 5909 5909 5909 5909 5909 5910 5910 5910 5910 5911 5911 5911 5911 5911 5911 5911 5911
5844 5848 5847 5848 5852 5856 5858 5861 5862 5863 5865 5866 5868 5871 5872 5874 5875 5877 5879 5881 5883 5884 5886 5887 5889 5890 5891 5892 5893 5894 5895 5897 5898 5899 5900 5901 5902 5902 5903 5903 5904 5905 5906 5906 5907 5907 5907 5907 5908 5908 5908 5908 5908 5909 5909 5909 5910 5910 5909 5909 5909 5908 5908
5841 5843 5843 5844 5848 5851 5854 5856 5858 5860 5862 5863 5866 5868 5870 5872 5873 5874 5876 5878 5880 5882 5883 5884 5886 5887 5888 5889 5890 5891 5892 5894 5896 5897 5897 5898 5899 5900 5901 5901 5902 5903 5904 5904 5905 5905 5905 5906 5906 5906 5906 5906 5907 5907 5908 5908 5908 5908 5908 5907 5907 5906 5906
5838 5840 5841 5842 5845 5848 5851 5853 5855 5857 5859 5861 5863 5866 5868 5869 5870 5872 5874 5876 5877 5879 5880 5882 5883 5885 5885 5886 5887 5889 5890 5892 5893 5894 5895 5896 5897 5898 5898 5899 5899 5900 5902 5903 5903 5903 5903 5904 5904 5904 5904 5905 5905 5906 5906 5906 5906 5906 5906 5906 5905 5905 5904
5837 5839 5840 5841 5844 5847 5849 5850 5852 5854 5856 5858 5861 5863 5865 5867 5868 5870 5872 5873 5874 5876 5878 5880 5881 5882 5883 5884 5885 5887 5888 5890 5891 5892 5893 5894 5894 5895 5896 5897 5897 5898 5900 5900 5901 5901 5901 5902 5902 5902 5902 5903 5903 5904 5904 5905 5905 5905 5904 5904 5903 5903 5902
5836 5837 5839 5841 5843 5845 5846 5848 5850 5852 5854 5856 5858 5860 5863 5865 5866 5868 5869 5870 5872 5874 5876 5878 5878 5880 5881 5882 5884 5885 5886 5887 5889 5890 5890 5891 5892 5893 5894 5895 5896 5896 5897 5898 5898 5898 5899 5899 5900 5900 5900 5900 5901 5901 5902 5903 5903 5903 5903 5902 5901 5901 5900
5834 5836 5838 5839 5841 5843 5845 5847 5849 5851 5852 5854 5856 5858 5860 5863 5864 5866 5866 5868 5871 5872 5874 5875 5876 5877 5879 5880 5882 5883 5884 5885 5886 5887 5888 5889 5890 5891 5892 5893 5894 5894 5894 5895 5895 5896 5896 5897 5897 5897 5898 5898 5898 5899 5900 5901 5901 5901 5901 5900 5900 5899 5898
5831 5833 5834 5836 5838 5841 5843 5845 5847 5848 5850 5852 5854 5856 5858 5860 5862 5863 5865 5866 5868 5870 5871 5873 5874 5875 5877 5878 5880 5881 5882 5883 5884 5885 5886 5887 5888 5889 5890 5891 5891 5891 5891 5892 5893 5893 5894 5894 5894 5895 5895 5896 5896 5896 5897 5898 5899 5899 5899 5899 5898 5897 5896
5826 5828 5831 5833 5836 5839 5841 5843 5844 5846 5848 5850 5852 5854 5856 5858 5860 5861 5863 5864 5866 5868 5869 5871 5872 5873 5875 5876 5877 5878 5880 5881 5882 5883 5884 5885 5886 5887 5888 5888 5888 5889 5889 5890 5890 5891 5892 5892 5892 5893 5893 5893 5894 5894 5895 5896 5896 5897 5897 5897 5896 5895 5894
5823 5826 5829 5832 5834 5836 5838 5840 5842 5844 5846 5847 5849 5852 5854 5855 5857 5858 5860 5862 5864 5865 5867 5869 5870 5871 5872 5874 5875 5876 5878 5879 5880 5881 5882 5883 5884 5885 5886 5886 5886 5886 5887 5887 5888 5888 5889 5890 5890 5891 5891 5891 5891 5892 5892 5893 5893 5894 5894 5894 5894 5893 5891
5821 5824 5826 5828 5830 5833 5835 5837 5839 5841 5843 5845 5847 5849 5851 5853 5854 5855 5857 5859 5861 5862 5864 5866 5868 5869 5870 5871 5872 5874 5875 5876 5877 5878 5879 5881 5881 5882 5883 5883 5884 5884 5885 5885 5886 5886 5886 5887 5888 5888 5888 5889 5889 5889 5890 5890 5890 5890 5891 5891 5891 5890 5889
5817 5819 5821 5823 5826 5829 5831 5833 5836 5838 5840 5842 5844 5846 5848 5850 5851 5853 5854 5856 5857 5859 5861 5863 5864 5865 5867 5868 5869 5871 5872 5873 5875 5876 5876 5878 5878 5879 5880 5880 5881 5882 5882 5883 5883 5883 5884 5884 5885 5885 5886 5886 5886 5886 5887 5887 5887 5887 5888 5888 5887 5887 5885
5814 5816 5817 5820 5823 5825 5827 5829 5831 5834 5836 5839 5841 5843 5844 5846 5848 5849 5851 5853 5854 5856 5857 5859 5860 5862 5863 5865 5866 5867 5869 5870 5872 5873 5873 5874 5875 5876 5877 5877 5878 5879 5879 5880 5880 5880 5881 5881 5881 5882 5882 5882 5882 5882 5883 5884 5884 5884 5884 5884 5883 5883 5881
5809 5812 5813 5816 5818 5820 5823 5825 5827 5829 5832 5834 5837 5839 5841 5843 5844 5846 5848 5849 5851 5852 5853 5854 5857 5858 5860 5862 5863 5864 5865 5867 5868 5869 5870 5871 5872 5873 5873 5874 5875 5875 5876 5876 5876 5876 5877 5877 5877 5877 5878 5878 5878 5878 5879 5879 5879 5879 5880 5880 5879 5878 5877
5805 5807 5809 5812 5814 5817 5819 5822 5824 5825 5827 5830 5832 5835 5837 5839 5840 5842 5844 5846 5847 5848 5849 5851 5853 5855 5856 5858 5859 5860 5861 5863 5864 5865 5866 5867 5868 5869 5869 5870 5870 5871 5871 5872 5872 5872 5872 5873 5873 5873 5873 5873 5873 5873 5873 5874 5873 5873 5874 5875 5875 5873 5872
5801 5803 5805 5808 5810 5813 5815 5817 5819 5821 5824 5826 5829 5831 5832 5835 5837 5838 5840 5842 5844 5845 5846 5847 5849 5851 5852 5854 5855 5856 5857 5859 5860 5861 5862 5863 5863 5864 5865 5865 5866 5866 5867 5867 5867 5867 5868 5868 5868 5868 5868 5868 5868 5868 5868 5867 5867 5866 5867 5869 5869 5868 5867
5796 5799 5801 5803 5806 5808 5810 5812 5815 5818 5820 5823 5825 5827 5829 5831 5833 5834 5836 5838 5839 5841 5842 5844 5846 5847 5849 5850 5851 5852 5853 5854 5856 5857 5858 5858 5859 5860 5861 5861 5861 5862 5862 5862 5862 5862 5863 5863 5863 5863 5863 5863 5863 5863 5862 5861 5861 5860 5860 5862 5863 5862 5862
5791 5794 5797 5799 5802 5804 5806 5809 5812 5814 5816 5819 5821 5823 5825 5827 5828 5830 5832 5833 5835 5836 5838 5840 5842 5843 5844 5846 5847 5848 5849 5850 5852 5853 5854 5854 5855 5856 5857 5857 5857 5857 5858 5858 5858 5858 5858 5858 5858 5858 5858 5858 5858 5858 5857 5856 5855 5854 5854 5855 5856 5856 5856
5786 5789 5792 5795 5798 5800 5802 5804 5807 5810 5812 5814 5816 5818 5820 5822 5824 5826 5827 5829 5830 5832 5834 5835 5837 5839 5840 5841 5842 5844 5845 5846 5848 5849 5850 5850 5851 5851 5852 5853 5853 5853 5853 5853 5854 5854 5853 5853 5853 5853 5853 5852 5852 5852 5851 5850 5850 5849 5848 5847 5848 5849 5848
5781 5784 5787 5791 5793 5795 5797 5800 5802 5805 5807 5810 5812 5814 5816 5817 5819 5821 5823 5825 5826 5828 5829 5831 5832 5834 5835 5837 5838 5839 5840 5841 5843 5844 5845 5845 5846 5846 5847 5847 5848 5848 5848 5848 5848 5848 5848 5848 5847 5847 5847 5846 5846 5846 5845 5844 5843 5843 5841 5840 5840 5841 5840
5776 5779 5782 5786 5789 5791 5793 5795 5797 5799 5802 5804 5807 5809 5811 5813 5815 5816 5818 5820 5821 5823 5824 5826 5827 5829 5830 5831 5832 5834 5835 5836 5837 5838 5839 5840 5840 5841 5841 5842 5842 5842 5842 5842 5842 5842 5841 5841 5841 5841 5840 5840 5839 5839 5838 5837 5837 5836 5834 5832 5832 5833 5833
5771 5774 5777 5780 5783 5786 5788 5790 5792 5794 5796 5799 5801 5803 5805 5807 5809 5811 5813 5815 5816 5818 5819 5821 5822 5823 5824 5826 5827 5829 5830 5830 5831 5832 5833 5834 5834 5835 5835 5836 5836 5836 5836 5836 5836 5836 5835 5835 5835 5835 5834 5833 5833 5832 5831 5830 5830 5829 5827 5825 5824 5824 5825
5765 5768 5771 5774 5777 5780 5783 5785 5787 5789 5791 5793 5795 5798 5800 5802 5804 5806 5808 5810 5811 5813 5814 5815 5816 5817 5819 5820 5822 5823 5824 5824 5826 5827 5827 5828 5828 5829 5829 5830 5830 5830 5830 5830 5829 5829 5829 5829 5828 5828 5827 5826 5825 5825 5824 5823 5822 5821 5820 5819 5817 5816 5816
5759 5762 5765 5768 5771 5774 5777 5779 5782 5784 5786 5788 5790 5792 5794 5796 5798 5800 5802 5804 5805 5807 5808 5810 5811 5812 5814 5815 5816 5817 5818 5818 5820 5821 5821 5821 5822 5823 5823 5823 5823 5823 5824 5823 5823 5822 5822 5822 5822 5821 5820 5819 5818 5818 5817 5817 5815 5814 5813 5812 5810 5808 5808
Wind_Speed
31 29 28 28 27 26 25 23 22 23 22 21 22 22 24 24 24 23 23 23 23 23 23 23 23 23 22 22 22 21 21 20 19 19 19 19 18 17 17 17 16 15 15 14 12 11 10 10 9 9 8 7 7 7 8 8 9 9 8 6 4 4 4
32 30 28 30 29 27 26 24 24 24 23 22 22 23 23 23 23 23 24 24 25 25 25 25 24 24 23 23 23 22 21 20 20 19 19 19 19 18 18 17 17 17 16 15 14 13 12 11 11 11 10 9 8 9 9 9 9 10 10 8 7 5 5
27 27 29 30 27 25 25 25 24 25 24 23 23 23 23 23 23 24 25 26 26 26 26 26 26 25 25 24 23 22 21 20 20 20 20 20 20 19 18 17 17 17 17 17 16 15 14 13 13 12 12 11 10 10 11 11 11 10 11 11 9 8 7
28 27 29 28 25 24 26 26 25 25 25 24 23 23 23 24 25 26 26 26 26 26 26 26 26 25 25 24 23 21 20 20 19 20 20 21 21 20 18 17 17 17 17 17 17 16 16 15 15 14 14 13 12 12 12 13 12 12 12 12 11 11 10
32 29 29 27 26 26 26 26 25 24 24 24 24 24 24 25 26 26 26 26 26 26 26 26 26 25 24 23 22 22 20 20 19 19 19 20 20 19 18 18 17 17 17 17 17 17 17 16 16 16 16 15 14 14 14 14 14 13 13 13 13 13 12
37 32 28 27 27 27 25 25 25 25 25 25 25 26 26 26 26 26 26 26 26 26 26 25 24 23 22 23 22 22 21 20 19 19 19 19 19 19 18 18 19 18 18 18 18 18 18 18 17 17 17 17 17 16 16 16 16 15 15 14 14 14 14
38 33 28 28 27 24 23 24 26 26 26 26 26 26 26 26 26 25 25 24 25 25 24 23 23 22 22 22 22 21 21 20 20 20 19 19 19 18 19 19 19 20 20 19 19 19 19 20 19 19 19 19 19 18 18 18 17 17 17 16 16 16 16
37 31 27 28 27 24 25 26 26 27 27 25 25 25 26 26 27 26 25 24 24 24 23 22 22 22 22 22 22 21 21 21 21 20 20 19 19 19 19 19 20 20 20 19 20 20 20 20 20 20 21 21 20 20 20 20 20 19 18 18 18 18 18
37 31 27 27 27 27 29 28 26 26 25 24 24 25 26 27 27 26 24 24 24 24 22 22 21 21 22 22 22 22 22 22 21 21 20 19 19 19 19 19 19 19 19 19 19 20 20 20 20 20 21 22 22 21 21 21 21 21 20 20 20 20 20
37 35 31 28 28 27 27 26 25 24 24 24 25 26 26 26 26 26 25 25 24 23 22 23 23 22 21 21 21 23 23 22 22 21 20 19 19 20 20 20 19 19 19 19 19 19 20 20 20 19 20 21 22 23 23 23 23 23 22 22 22 22 22
38 35 33 31 28 26 25 24 23 23 23 24 24 25 26 26 25 26 27 27 25 25 25 25 25 24 22 21 23 23 23 22 22 20 19 20 20 20 20 20 19 19 19 19 19 19 20 20 19 18 19 20 21 23 24 24 24 24 24 23 23 23 23
34 30 31 31 29 28 28 26 25 25 25 24 24 24 24 25 26 26 27 28 28 28 28 27 27 25 23 23 24 23 22 21 21 19 19 20 21 21 21 20 19 19 19 19 19 19 19 19 18 17 17 19 20 21 23 24 24 24 24 24 23 23 23
29 27 31 33 32 32 32 30 29 29 28 27 27 25 23 24 26 27 26 26 28 29 28 27 27 26 25 25 25 24 22 21 20 19 20 21 22 21 21 21 20 19 19 19 19 19 18 18 17 15 15 15 16 17 19 21 23 23 24 24 23 23 23
31 31 33 34 34 34 33 33 33 32 32 31 31 29 26 25 26 27 26 27 27 28 27 27 27 27 27 28 27 25 23 22 22 22 22 22 23 22 21 21 20 19 20 19 18 17 17 16 15 14 13 13 13 14 15 16 17 18 19 21 21 22 22
34 34 36 38 37 35 34 34 35 35 36 35 34 33 31 29 27 27 27 27 27 27 27 27 27 27 28 29 30 27 25 24 24 24 24 24 23 22 21 21 21 21 20 19 17 16 16 16 15 14 13 12 11 12 12 12 13 14 15 17 19 20 20
36 37 40 40 38 38 38 37 38 39 39 38 37 35 34 33 31 29 28 28 27 26 27 26 25 25 26 28 30 30 28 27 26 25 25 25 23 23 22 22 22 22 20 18 17 16 16 16 16 14 13 12 11 11 11 11 11 12 13 15 17 19 19
38 40 42 41 39 40 41 40 41 41 41 41 39 38 37 36 34 32 31 30 28 27 27 26 23 22 23 25 28 30 29 28 27 27 26 26 24 24 23 24 23 22 20 18 17 17 17 18 17 15 14 13 12 12 11 11 12 12 14 16 17 19 20
38 39 39 39 38 38 39 40 42 42 42 41 40 39 39 38 36 35 33 32 31 29 27 25 23 20 20 21 25 27 27 26 27 27 26 26 25 24 24 24 24 22 20 18 17 18 19 19 18 17 16 15 14 13 14 14 14 14 15 16 18 20 21
37 38 38 38 37 38 39 39 40 42 42 41 39 38 37 38 38 37 36 35 34 31 28 25 23 21 20 20 21 23 24 25 25 25 25 25 25 25 24 24 23 22 20 18 19 20 21 21 20 19 18 17 16 16 16 16 17 17 17 18 19 21 22
36 36 36 36 36 38 38 36 35 38 39 40 39 37 36 37 38 38 37 37 35 33 29 25 24 23 21 20 20 20 22 23 23 24 24 25 24 23 22 22 22 22 20 20 20 21 21 22 22 21 20 20 19 18 18 18 18 19 19 19 20 22 24
33 33 33 33 34 33 33 33 34 36 37 38 38 37 35 36 38 39 39 38 36 33 30 25 23 22 21 21 20 21 21 21 22 22 22 22 22 21 20 20 21 21 21 21 21 22 22 23 23 23 22 22 21 20 19 18 19 19 21 22 22 24 26
32 33 34 32 31 29 28 30 31 31 33 35 35 35 35 35 37 39 39 38 37 34 31 26 22 20 20 20 19 19 20 20 21 21 20 20 20 19 18 19 20 21 22 23 23 23 24 24 24 24 24 24 24 23 22 21 21 20 21 23 25 27 29
35 35 34 31 30 29 28 27 26 25 27 29 31 32 33 34 36 37 38 39 38 35 32 27 22 19 18 17 17 17 17 18 19 19 19 19 18 17 18 19 21 22 23 23 23 23 24 25 26 26 26 27 27 26 26 25 24 23 22 23 26 28 31
35 33 31 30 30 30 29 27 26 25 24 24 25 27 30 31 33 34 35 36 37 36 34 28 23 20 19 18 18 18 18 18 19 19 19 19 19 18 19 20 21 23 24 24 24 24 25 26 27 27 28 29 29 29 28 28 27 25 24 24 25 28 31
36 33 32 32 31 30 29 28 27 26 25 23 23 24 26 28 30 31 31 32 34 36 35 30 25 23 22 22 21 21 21 21 22 22 21 21 21 22 22 22 23 24 25 26 26 26 27 28 28 28 29 29 29 29 29 29 29 29 27 26 26 27 30
38 37 36 35 32 31 30 29 28 28 27 26 24 25 26 26 28 29 29 30 31 32 33 32 29 27 26 25 25 24 24 24 24 24 23 23 24 24 24 24 24 24 25 26 26 27 28 29 30 30 30 30 30 30 30 29 30 30 29 29 29 29 31
40 39 38 37 35 34 33 31 30 30 29 28 27 27 27 27 27 28 28 29 30 31 31 32 31 30 29 28 27 26 26 26 25 24 25 25 25 25 25 25 25 25 25 26 27 29 29 30 32 32 32 31 31 32 32 32 33 33 32 32 32 33 34
42 42 41 40 38 37 36 34 33 32 31 29 28 29 29 29 29 28 28 29 31 31 31 31 31 32 32 30 28 28 27 27 26 26 26 27 26 26 26 26 27 27 27 28 30 32 32 33 34 35 35 34 34 34 34 35 36 36 35 34 35 36 38
43 43 44 43 41 40 39 37 36 35 34 32 30 30 30 31 30 29 29 30 32 32 32 31 32 33 34 32 30 29 29 28 27 28 28 28 28 29 29 29 30 30 31 32 33 35 35 35 36 38 38 38 37 37 37 36 37 39 38 36 37 39 40
43 43 44 44 44 43 41 40 39 38 37 35 33 32 32 32 32 31 31 31 31 33 34 33 32 33 34 34 33 31 30 29 29 29 30 31 32 32 32 33 34 34 35 36 37 39 39 39 39 40 40 40 40 40 40 40 40 41 41 39 38 39 41
43 42 43 44 45 44 43 43 41 40 39 37 35 35 34 34 34 34 33 32 32 34 35 35 34 34 34 35 34 33 32 31 30 31 32 34 35 36 37 37 38 39 39 40 42 43 42 42 42 41 41 41 42 43 43 44 44 45 45 43 40 41 43
44 43 42 43 44 44 44 44 42 41 40 39 38 37 36 36 36 36 35 35 35 35 35 35 35 35 35 35 35 35 34 34 33 34 35 37 38 39 40 41 42 43 43 44 44 44 44 43 43 43 43 43 44 45 46 47 48 48 48 47 44 45 47
44 43 43 42 42 43 44 43 42 42 41 40 40 39 38 37 37 37 37 37 37 36 36 36 36 36 36 36 36 36 37 37 37 38 39 40 41 42 43 44 45 46 46 46 45 44 44 44 44 44 45 45 46 47 48 49 50 50 50 50 49 48 50
45 45 44 42 41 42 42 42 41 42 41 41 41 40 40 39 39 38 38 38 37 38 38 37 37 38 38 38 38 38 39 40 40 41 42 43 44 45 46 46 47 47 46 46 45 45 45 45 45 46 47 48 49 49 50 51 51 51 52 53 53 52 53
46 46 45 44 42 41 41 40 40 40 40 40 40 40 40 40 40 40 39 39 38 39 38 38 38 39 39 40 40 40 40 41 41 42 43 44 45 46 46 46 46 46 46 45 45 46 46 47 48 48 49 50 51 51 51 52 52 52 54 56 56 55 55
47 47 46 46 45 43 42 41 40 40 40 39 39 40 40 40 40 40 40 40 39 39 39 39 39 40 40 41 41 41 42 42 43 43 43 44 45 46 46 46 46 46 47 47 47 48 50 50 51 51 51 51 52 51 52 53 53 54 56 57 58 57 56
49 49 48 47 46 45 44 43 42 41 40 39 39 39 39 39 40 40 39 40 40 40 40 40 40 41 41 41 42 42 43 44 44 45 45 46 47 47 47 48 48 49 49 50 51 51 52 51 50 49 49 50 51 51 52 53 54 55 57 58 59 60 59
50 50 49 49 48 47 46 45 44 42 41 41 40 40 40 39 39 39 39 39 40 40 40 41 41 41 42 43 43 44 45 46 46 47 47 48 49 49 49 49 50 51 51 51 51 51 50 49 48 47 48 49 50 52 53 54 55 57 59 60 61 63 64
Wind_Direction
221 213 213 216 216 217 216 212 211 213 212 210 211 209 209 209 207 205 203 204 205 205 206 207 209 210 210 212 213 213 213 213 214 216 218 222 224 224 224 224 225 228 230 230 230 229 229 233 241 246 250 256 267 279 289 301 307 302 288 279 285 301 300
220 218 219 218 214 215 217 213 212 213 212 213 214 211 209 209 207 205 203 204 205 206 207 209 212 214 215 216 216 215 215 215 216 219 222 226 228 229 228 227 229 232 235 237 238 237 236 237 241 247 253 256 261 269 277 288 302 308 301 287 277 279 283
226 226 229 222 211 213 218 215 213 214 213 214 216 214 210 208 208 206 206 206 208 209 210 213 214 216 216 217 216 216 217 217 219 222 226 229 232 234 234 233 233 234 238 241 243 244 244 244 245 249 254 256 258 265 271 279 291 303 306 299 285 274 270
231 229 232 224 209 211 218 217 215 215 214 214 216 215 212 211 210 209 209 210 212 213 214 217 219 220 221 220 221 221 222 223 224 227 230 234 237 241 243 242 241 241 242 244 247 249 250 250 250 252 255 257 259 263 268 273 280 289 298 301 294 280 270
233 228 229 225 214 212 217 219 218 217 216 215 216 215 213 214 214 213 214 215 216 217 218 221 222 223 224 225 226 228 228 230 231 232 235 239 243 247 250 251 252 252 252 252 253 254 255 256 256 255 256 258 260 263 266 270 275 279 286 294 296 286 275
234 232 228 226 218 211 212 219 221 220 219 217 217 217 215 216 218 219 219 220 221 222 223 224 224 225 228 231 233 234 236 237 239 241 242 243 246 248 251 255 257 259 260 260 260 260 260 261 260 259 259 260 261 263 266 268 272 275 279 284 290 288 278
233 233 229 225 216 207 209 218 222 223 223 220 219 219 219 219 221 223 224 226 227 228 228 227 225 226 229 233 235 238 240 241 242 244 244 246 247 249 252 256 259 262 265 266 266 265 263 261 261 261 262 262 262 263 266 268 271 273 276 278 283 285 279
230 232 230 224 214 206 209 214 220 224 223 221 221 221 222 222 223 224 226 228 230 230 229 228 227 228 230 232 235 238 241 242 243 244 245 247 248 251 255 260 262 265 268 269 270 270 269 266 263 261 261 263 264 264 266 269 271 273 274 275 277 279 279
230 234 231 224 216 214 212 209 216 224 222 218 217 218 221 223 224 225 225 228 232 232 230 231 232 234 236 237 239 240 243 245 247 248 249 249 251 255 260 263 265 268 269 270 272 274 275 273 269 265 260 260 262 264 265 267 270 272 273 273 273 274 275
228 232 228 221 216 219 221 214 216 224 225 221 218 216 219 222 223 224 225 227 232 235 236 235 235 237 241 244 245 245 246 248 250 252 254 254 256 260 264 267 269 271 272 273 275 276 276 275 273 270 264 261 261 261 263 264 266 269 270 270 270 270 271
224 226 223 220 215 218 225 224 223 228 231 231 230 225 220 221 222 222 223 225 228 232 236 238 238 238 241 245 248 249 249 251 253 255 256 258 261 265 269 272 273 275 276 277 279 279 279 278 275 271 266 262 260 259 260 262 264 266 268 268 268 269 270
225 222 220 219 217 217 222 224 225 229 233 235 238 235 223 218 222 223 223 225 227 230 235 239 242 243 244 247 250 252 253 254 256 257 258 259 263 267 270 273 275 276 277 278 281 282 281 280 277 273 268 265 263 262 261 262 263 264 265 266 266 268 269
231 225 221 219 218 217 219 222 224 227 231 232 235 238 229 220 223 227 228 229 231 234 238 242 246 249 251 253 254 254 254 255 256 256 256 257 261 264 268 272 273 274 274 277 281 281 279 278 275 273 270 267 267 265 263 263 264 265 266 266 266 265 266
230 226 222 219 220 220 220 221 223 226 231 231 232 236 237 231 227 227 228 230 234 238 241 244 247 250 252 253 254 253 251 252 252 252 253 255 258 263 266 270 271 271 272 275 276 275 274 271 267 266 267 266 266 267 268 269 270 271 271 270 268 266 265
223 221 220 219 219 222 223 223 223 225 229 232 232 234 239 241 237 233 231 232 234 237 240 242 245 247 248 248 250 250 246 244 246 248 251 253 256 261 264 265 266 266 268 270 269 267 266 263 259 260 262 261 263 269 273 277 279 279 277 274 272 270 266
218 216 220 220 217 219 223 224 225 226 229 232 232 233 237 242 244 243 242 240 240 242 243 243 244 246 245 244 244 245 243 241 242 245 249 251 254 257 259 260 261 262 264 264 261 261 260 256 255 257 256 258 262 268 272 278 282 282 280 277 275 273 269
219 217 221 224 220 219 222 225 226 227 230 233 234 234 236 240 244 246 248 248 249 250 249 248 248 247 245 243 242 243 244 244 245 247 249 250 252 255 256 257 258 259 260 258 256 256 254 253 253 253 253 257 262 265 268 273 277 281 282 281 279 277 274
227 226 228 230 229 226 227 227 228 230 232 234 236 236 236 239 244 247 249 251 252 254 253 252 252 250 248 245 243 244 247 248 248 248 249 251 254 256 256 255 256 257 256 254 252 250 249 250 251 252 254 258 260 263 265 267 271 275 279 282 283 282 280
231 233 235 236 236 235 234 232 231 232 235 238 239 240 239 240 243 246 249 251 252 255 255 253 252 252 249 247 247 247 247 248 248 248 250 253 257 259 256 255 255 255 254 252 249 247 247 249 252 254 258 261 261 261 263 264 267 270 273 277 281 282 282
229 231 234 236 237 237 237 238 239 239 240 241 242 243 241 240 241 244 248 250 252 254 255 255 253 250 247 245 245 244 243 244 246 248 251 254 257 259 258 255 253 254 254 252 250 249 249 250 253 257 261 263 264 264 265 266 267 268 270 272 276 280 282
226 228 230 231 233 234 236 239 241 242 242 243 244 244 242 240 240 243 246 249 251 252 254 256 252 247 245 243 241 240 240 243 246 249 251 253 254 256 257 254 253 254 254 253 252 251 251 252 256 260 264 267 268 266 266 267 269 270 270 270 272 276 279
224 225 227 228 230 230 231 233 235 237 240 241 242 243 242 240 240 241 244 247 249 250 252 253 248 244 244 245 243 242 240 240 242 244 246 249 252 256 258 257 254 252 252 253 252 253 254 256 260 264 267 268 269 268 269 271 273 274 273 272 273 276 278
223 223 224 226 228 229 228 229 230 232 234 236 238 239 240 239 239 240 241 244 246 249 251 250 247 244 245 245 245 244 241 239 240 243 246 248 251 255 258 257 254 251 253 255 255 256 257 258 261 264 267 268 270 272 275 277 279 280 279 278 280 281 282
226 226 226 226 226 226 227 228 228 229 230 232 234 236 237 237 237 237 239 241 243 246 247 247 244 242 244 245 245 247 248 248 248 251 253 254 255 256 255 255 254 253 254 255 256 258 259 260 261 264 267 269 272 274 276 279 283 284 283 283 284 285 286
231 231 232 230 228 227 227 227 228 228 227 229 233 236 237 236 235 235 236 237 238 240 242 242 240 238 240 242 244 247 250 251 253 256 257 257 257 255 254 254 253 253 254 256 259 261 262 262 263 265 267 269 271 273 274 277 281 283 283 283 284 286 286
231 233 234 234 233 232 231 230 231 230 229 230 233 237 238 238 237 236 236 235 235 234 236 238 237 236 237 240 242 243 246 250 253 256 257 256 254 253 255 255 254 255 258 261 264 264 264 265 265 265 266 268 270 271 273 275 279 280 281 282 285 287 287
226 231 234 234 234 235 235 234 236 236 235 234 235 237 237 238 239 239 238 238 237 235 235 235 235 234 235 237 240 242 245 248 250 252 253 253 253 254 256 256 257 259 262 265 267 267 268 269 270 270 269 269 271 273 274 276 278 279 281 283 286 290 290
223 226 230 232 232 234 235 235 237 239 240 239 239 238 237 236 238 239 239 240 240 240 239 236 234 233 234 234 238 242 245 248 250 252 254 255 257 259 259 259 259 261 262 265 266 268 269 271 273 274 274 273 274 276 277 278 278 279 282 285 287 289 290
222 224 227 229 230 232 234 235 237 238 238 239 240 240 239 238 238 239 240 241 242 243 244 242 237 235 235 235 236 241 245 249 252 256 258 261 263 264 264 265 264 264 265 267 268 270 271 272 274 275 276 277 279 280 281 281 279 279 281 284 286 287 289
223 223 224 227 228 230 232 233 234 236 236 237 238 240 241 241 241 241 241 242 243 245 246 246 243 240 238 238 237 239 243 247 252 257 260 263 265 266 267 268 268 270 271 273 273 274 275 274 274 274 276 278 280 281 282 282 282 282 282 283 284 285 286
223 223 223 225 226 228 230 231 231 233 235 236 236 237 239 242 243 244 244 244 245 246 247 248 248 245 243 241 240 240 241 244 248 252 257 260 263 265 267 268 269 271 272 274 275 275 276 276 275 274 275 277 278 280 281 282 282 283 283 283 284 283 283
223 223 223 225 226 228 230 230 230 232 233 235 235 236 237 239 241 243 245 245 246 247 248 249 250 248 247 245 243 242 242 243 244 247 251 255 258 261 263 264 265 266 268 271 272 273 274 275 275 275 276 276 277 279 279 280 281 282 283 284 283 281 281
224 224 224 225 226 229 231 231 231 232 232 233 234 235 236 237 238 240 242 244 246 247 248 249 250 250 249 247 245 244 244 243 244 245 248 251 254 256 258 260 261 263 265 267 268 269 270 272 274 275 275 276 277 277 278 279 281 282 282 283 282 281 280
226 226 225 225 225 228 232 233 233 234 234 234 234 235 236 237 237 238 240 242 244 246 247 248 249 250 250 249 248 247 247 246 246 246 247 249 251 253 255 257 259 262 263 265 266 268 269 271 273 275 276 277 277 278 279 279 280 281 281 281 281 281 281
229 229 228 227 226 227 230 233 234 235 236 237 236 237 237 237 238 239 240 241 242 244 245 246 247 247 249 250 250 250 251 251 251 251 251 252 253 254 256 258 259 261 263 265 267 268 270 272 274 275 276 277 277 278 278 278 278 278 279 280 281 281 282
231 232 232 231 230 229 230 232 234 236 237 238 239 239 239 239 240 240 241 241 241 242 244 245 246 246 247 248 250 251 253 254 254 255 256 257 257 258 259 260 261 263 264 266 267 268 270 272 273 274 274 274 274 274 274 274 275 276 277 278 280 281 281
232 233 234 234 234 233 232 232 233 235 237 238 240 240 241 241 241 242 242 242 242 243 243 244 245 246 247 248 249 251 253 254 256 257 258 259 259 260 261 261 262 264 265 266 268 269 270 271 271 271 270 271 271 271 272 273 274 275 276 277 279 280 281
232 233 233 234 235 235 235 234 234 235 236 238 240 241 242 242 242 242 242 242 243 243 244 244 244 245 247 248 250 251 253 255 256 257 258 259 260 261 262 263 264 265 266 267 269 270 270 270 269 269 268 269 269 270 271 272 273 275 276 278 279 280 281